Location: Newark
(41.4948°N, 13.7689°E)
Time: 02:40:41
(UTC+00:00)

Starlink Launch 2 leader - Visible Passes

Search period start: 07 December 2019 00:00
Search period end: 17 December 2019 00:00
Orbit: 279 x 281 km, 53.0° (Epoch: 13 November)

Date Brightness Start Highest point End Pass type
(mag) Time Alt. Az. Time Alt. Az. Time Alt. Az.
07 Dec 3.6 05:16:05 15° NNW 05:17:41 32° NNE 05:19:58 10° E visible
08 Dec 2.4 05:18:06 19° NW 05:19:40 68° NE 05:22:07 10° ESE visible
09 Dec 2.6 05:20:11 20° WNW 05:21:35 50° SW 05:23:58 10° SE visible
10 Dec 3.8 05:22:20 17° W 05:23:25 22° SW 05:25:26 10° S visible
11 Dec 4.7 05:24:34 10° WSW 05:25:12 11° SW 05:26:01 10° SSW visible
